#timestamp,LO_Frequency,Hit,StdDev 
1501110015.4,286046998.2,N,2.1
1501110035.3,286046998.6,N,2.0
1501110055.1,286046998.1,N,1.9
1501110075.8,286047001.0,N,1.9
1501110095.7,286047000.6,N,1.8
1501110115.5,286047000.6,N,1.8
1501110135.4,286046998.2,N,1.7
1501110155.2,286047000.7,N,1.7
1501110175.0,286047001.0,N,1.7
1501110175.9,286047001.0,N,1.7
1501110195.8,286047002.6,N,1.8
1501110215.6,286047004.2,N,2.0
1501110235.5,286047004.0,N,2.1
1501110255.3,286047002.7,N,2.1
1501110275.1,286047002.3,N,2.1
1501110295.9,286046999.9,N,2.1
1501110315.7,286047001.9,N,2.0
1501110335.5,286047000.1,N,2.0
1501110355.4,286047000.0,N,2.0
1501110375.2,286046998.5,N,2.0
1501110395.1,286047000.8,N,1.9
1501110396.0,286047000.8,N,1.9
1501110415.8,286047002.3,N,1.9
1501110435.6,286047002.7,N,1.9
1501110455.5,286047002.6,N,1.9
1501110475.3,286046999.9,N,1.8
1501110495.2,286047000.2,N,1.7
1501110515.9,286046999.7,N,1.7
1501110535.7,286047002.4,N,1.7
1501110555.6,286047002.1,N,1.6
1501110575.4,286047001.7,N,1.6
1501110595.3,286047002.6,N,1.5
1501110615.1,286047001.6,N,1.4
1501110616.0,286047001.6,N,1.4
1501110655.3,286047000.5,P,1.9
1501110675.1,286046998.3,N,2.5
1501110695.9,286047000.1,N,2.2
1501110715.7,286047002.8,N,2.1
1501110735.5,286046998.1,N,2.2
1501110755.4,286046998.1,N,2.3
1501110775.2,286047000.5,N,2.1
1501110795.0,286047000.2,N,2.0
1501110796.0,286047000.2,N,1.9
1501110815.8,286046999.9,N,1.8
1501110835.6,286047000.3,N,1.7
1501110855.5,286047000.4,N,1.7
1501110875.3,286047000.3,N,1.6
1501110895.1,286047000.5,N,1.6
1501110915.9,286047000.4,N,1.5
1501110935.7,286047000.4,N,1.5
1501110955.6,286047000.0,N,1.4
1501110975.4,286047000.9,N,1.4
1501110995.2,286047000.0,N,1.4
1501111015.1,286046999.9,N,1.3
1501111016.0,286046999.9,N,1.3
1501111035.8,286047002.1,N,1.3
1501111055.7,286047000.3,N,1.3
1501111075.5,286047000.5,N,1.3
1501111095.3,286047000.9,N,1.3
1501111115.2,286046998.6,N,1.3
1501111135.0,286046999.1,N,1.3
1501111135.9,286046999.1,N,1.3
1501111155.8,286046998.6,N,1.3
1501111175.6,286047000.8,N,1.0
1501111195.4,286047001.0,N,1.0
1501111215.3,286047001.0,N,1.0
1501111235.1,286047000.9,N,1.0
1501111255.9,286046999.9,N,0.9
1501111275.7,286047000.6,N,0.8
1501111315.9,286047000.4,P,1.1
1501111335.7,286047002.7,N,1.1
1501111355.6,286047000.7,N,1.1
1501111375.4,286047000.0,N,1.1
1501111395.2,286046999.8,N,1.2
1501111415.1,286046999.9,N,1.2
1501111416.0,286046999.9,N,1.1
1501111435.8,286047000.0,N,1.1
1501111455.6,286046999.9,N,1.1
1501111475.5,286047000.8,N,1.0
1501111495.3,286047001.0,N,1.0
1501111515.2,286047000.7,N,0.9
1501111535.9,286046998.6,N,1.0
1501111555.7,286047000.9,N,1.0
1501111575.6,286047001.0,N,1.0
1501111595.4,286047000.3,N,1.0
1501111615.3,286047001.0,N,0.9
1501111635.1,286047000.5,N,0.9
1501111636.0,286047000.5,N,0.9
1501111655.8,286047000.6,N,0.9
1501111675.7,286047000.7,N,0.9
1501111695.5,286047001.1,N,0.8
1501111715.3,286047001.0,N,0.8
1501111735.2,286047001.2,N,0.8
1501111755.0,286047000.8,N,0.8
1501111755.9,286047000.8,N,0.8
1501111775.8,286046998.8,N,0.8
1501111795.6,286046999.4,N,0.9
1501111815.4,286046998.8,N,0.9
1501111835.3,286046999.3,N,0.8
1501111855.1,286046999.3,N,0.9
1501111875.9,286046999.0,N,0.8
1501111895.7,286046999.1,N,0.8
1501111935.9,286046995.3,P,0.7
1501111955.7,286046997.6,P,0.9
1501111975.6,286046995.1,P,1.0
1501111995.4,286046995.5,P,1.0
1501112015.2,286046997.8,N,1.1
1501112035.1,286046994.9,P,1.1
1501112036.0,286046994.9,P,1.1
1501112055.8,286046995.4,P,1.1
1501112075.7,286046997.3,N,1.1
1501112095.5,286046997.6,N,1.1
1501112115.3,286046996.8,N,1.1
1501112135.2,286046997.7,N,1.1
1501112155.0,286046997.4,N,1.1
1501112155.9,286046997.4,N,1.1
1501112175.7,286046997.2,N,1.1
1501112215.0,286046998.6,P,1.7
1501112215.9,286046998.6,N,1.6
1501112235.8,286047000.8,N,2.0
1501112255.6,286047000.9,N,2.0
1501112275.4,286047001.2,N,2.1
1501112295.3,286046998.2,N,1.9
1501112315.1,286046998.5,N,1.8
1501112335.9,286046998.5,N,1.7
1501112355.7,286047001.1,N,1.8
1501112375.5,286046998.7,N,1.7
1501112395.4,286046998.2,N,1.6
1501112415.2,286046998.1,N,1.6
1501112435.1,286046998.4,N,1.5
1501112436.0,286046998.4,N,1.5
1501112455.8,286047001.0,N,1.5
1501112475.6,286047000.6,N,1.5
1501112495.5,286046998.5,N,1.5
1501112515.3,286046998.1,N,1.5
1501112535.2,286047001.2,N,1.5
1501112555.9,286047001.0,N,1.5
1501112575.7,286046998.7,N,1.5
1501112595.6,286046998.7,N,1.5
1501112615.4,286046998.2,N,1.4
1501112635.2,286046998.4,N,1.4
1501112655.1,286046999.4,N,1.4
1501112656.0,286046999.4,N,1.4
1501112695.3,286046999.4,P,0.5
1501112715.1,286046998.1,P,0.6
1501112735.8,286047000.5,N,0.9
1501112755.7,286046998.5,N,0.9
1501112775.5,286046998.1,N,0.9
1501112795.4,286046998.4,N,0.8
1501112815.2,286046998.3,N,0.8
1501112835.0,286046998.1,N,0.8
1501112835.9,286046998.1,N,0.7
1501112855.8,286047001.2,N,1.0
1501112875.6,286046998.1,N,1.0
1501112895.5,286046998.3,N,1.0
1501112915.3,286047000.2,N,1.0
1501112935.1,286046998.1,N,1.0
1501112955.9,286047000.8,N,1.1
1501112975.7,286047000.8,N,1.1
1501112995.6,286046998.5,N,1.1
1501113015.4,286046999.0,N,1.1
1501113035.2,286046999.6,N,1.1
1501113055.1,286046997.1,N,1.1
1501113056.0,286046997.1,N,1.2
1501113075.8,286046999.0,N,1.1
1501113095.6,286046998.1,N,1.1
1501113115.5,286047001.2,N,1.2
1501113135.3,286047002.7,N,1.4
1501113155.2,286046998.2,N,1.4
1501113175.9,286047000.7,N,1.4
1501113195.7,286047002.7,N,1.5
1501113215.6,286047002.7,N,1.6
1501113235.4,286047002.7,N,1.7
1501113255.3,286047002.6,N,1.8
1501113275.1,286047002.4,N,1.8
1501113276.0,286047002.4,N,1.9
1501113295.8,286047002.2,N,1.9
1501113315.7,286047002.3,N,1.9
1501113335.5,286047002.1,N,1.9
1501113355.4,286047001.3,N,1.9
1501113375.2,286047000.2,N,1.9
1501113395.0,286047002.7,N,1.9
1501113395.9,286047002.7,N,1.9
1501113415.8,286047002.3,N,1.9
1501113435.6,286047002.6,N,1.9
1501113455.4,286047001.1,N,1.9
1501113475.3,286047001.1,N,1.8
1501113495.1,286047000.9,N,1.8
1501113515.6,286047000.7,N,1.8
1501113535.4,286047002.6,N,1.8
1501113555.3,286047002.7,N,1.7
1501113575.1,286047002.6,N,1.7
1501113576.0,286047002.6,N,1.5
1501113595.8,286047002.5,N,1.3
